Time,TemperatureF,DewpointF,PressureIn,WindDirection,WindDirectionDegrees,WindSpeedMPH,WindSpeedGustMPH,Humidity,HourlyPrecipIn,Conditions,Clouds,dailyrainin,SoftwareType,DateUTC
2013-02-27 00:06:00,31.2,29.0,29.75,WNW,296,4.0,11.0,93,0.00,,,0.28,weatherlink.com 1.10,2013-02-27 06:06:00,
2013-02-27 00:21:00,31.2,30.0,29.75,WNW,296,6.0,11.0,94,0.00,,,0.28,weatherlink.com 1.10,2013-02-27 06:21:00,
2013-02-27 00:36:00,31.1,29.0,29.74,NW,304,9.0,15.0,93,0.00,,,0.00,weatherlink.com 1.10,2013-02-27 06:36:00,
2013-02-27 00:51:00,31.1,29.0,29.74,WNW,301,6.0,12.0,93,0.00,,,0.00,weatherlink.com 1.10,2013-02-27 06:51:00,
2013-02-27 01:06:00,31.0,29.0,29.74,WNW,283,6.0,11.0,93,0.00,,,0.00,weatherlink.com 1.10,2013-02-27 07:06:00,
2013-02-27 01:21:00,31.1,29.0,29.75,NW,306,6.0,13.0,93,0.00,,,0.00,weatherlink.com 1.10,2013-02-27 07:21:00,
2013-02-27 01:36:00,31.1,29.0,29.75,WNW,283,4.0,8.0,93,0.01,,,0.01,weatherlink.com 1.10,2013-02-27 07:36:00,
2013-02-27 01:51:00,31.1,29.0,29.75,WNW,286,6.0,12.0,93,0.01,,,0.01,weatherlink.com 1.10,2013-02-27 07:51:00,
2013-02-27 02:06:00,31.0,29.0,29.75,WNW,300,4.0,14.0,93,0.01,,,0.01,weatherlink.com 1.10,2013-02-27 08:06:00,
2013-02-27 02:21:00,31.0,29.0,29.75,West,278,10.0,11.0,93,0.01,,,0.01,weatherlink.com 1.10,2013-02-27 08:21:00,
2013-02-27 02:36:00,30.8,29.0,29.74,WNW,293,6.0,14.0,94,0.00,,,0.01,weatherlink.com 1.10,2013-02-27 08:36:00,
2013-02-27 02:51:00,30.8,29.0,29.75,WNW,282,6.0,12.0,94,0.00,,,0.01,weatherlink.com 1.10,2013-02-27 08:51:00,
2013-02-27 03:06:00,30.8,29.0,29.75,WNW,296,5.0,11.0,94,0.00,,,0.01,weatherlink.com 1.10,2013-02-27 09:06:00,
2013-02-27 03:21:00,30.8,29.0,29.75,WNW,291,8.0,10.0,94,0.00,,,0.01,weatherlink.com 1.10,2013-02-27 09:21:00,
2013-02-27 03:36:00,30.8,29.0,29.75,NW,307,2.0,11.0,94,0.00,,,0.01,weatherlink.com 1.10,2013-02-27 09:36:00,
2013-02-27 03:51:00,30.8,29.0,29.75,WNW,296,4.0,12.0,94,0.00,,,0.01,weatherlink.com 1.10,2013-02-27 09:51:00,
2013-02-27 04:06:00,30.7,29.0,29.75,WNW,292,9.0,11.0,94,0.00,,,0.01,weatherlink.com 1.10,2013-02-27 10:06:00,
2013-02-27 04:21:00,30.5,29.0,29.76,WNW,292,5.0,9.0,95,0.00,,,0.01,weatherlink.com 1.10,2013-02-27 10:21:00,
2013-02-27 04:36:00,30.5,29.0,29.76,WNW,290,5.0,10.0,95,0.00,,,0.01,weatherlink.com 1.10,2013-02-27 10:36:00,
2013-02-27 04:51:00,30.4,29.0,29.77,WNW,284,4.0,9.0,95,0.00,,,0.01,weatherlink.com 1.10,2013-02-27 10:51:00,
2013-02-27 05:06:00,30.4,29.0,29.77,West,271,2.0,8.0,95,0.00,,,0.01,weatherlink.com 1.10,2013-02-27 11:06:00,
2013-02-27 05:21:00,30.3,29.0,29.78,West,280,3.0,11.0,96,0.00,,,0.01,weatherlink.com 1.10,2013-02-27 11:21:00,
2013-02-27 05:36:00,30.3,29.0,29.78,West,276,4.0,8.0,96,0.00,,,0.01,weatherlink.com 1.10,2013-02-27 11:36:00,
2013-02-27 05:51:00,30.3,29.0,29.78,West,275,3.0,10.0,96,0.00,,,0.01,weatherlink.com 1.10,2013-02-27 11:51:00,
2013-02-27 06:07:00,30.3,29.0,29.79,West,259,6.0,8.0,96,0.00,,,0.01,weatherlink.com 1.10,2013-02-27 12:07:00,
2013-02-27 06:22:00,30.2,29.0,29.79,WSW,252,6.0,7.0,96,0.00,,,0.01,weatherlink.com 1.10,2013-02-27 12:22:00,
2013-02-27 06:37:00,30.1,29.0,29.79,West,273,4.0,8.0,96,0.00,,,0.01,weatherlink.com 1.10,2013-02-27 12:37:00,
2013-02-27 06:52:00,30.1,29.0,29.79,West,268,4.0,10.0,96,0.00,,,0.01,weatherlink.com 1.10,2013-02-27 12:52:00,
2013-02-27 07:07:00,30.0,29.0,29.80,West,260,3.0,12.0,96,0.00,,,0.01,weatherlink.com 1.10,2013-02-27 13:07:00,
2013-02-27 07:22:00,29.9,29.0,29.80,West,281,5.0,11.0,96,0.00,,,0.01,weatherlink.com 1.10,2013-02-27 13:22:00,
2013-02-27 07:37:00,29.8,29.0,29.81,West,280,4.0,11.0,96,0.00,,,0.01,weatherlink.com 1.10,2013-02-27 13:37:00,
2013-02-27 07:52:00,29.8,29.0,29.81,WSW,258,6.0,12.0,96,0.00,,,0.01,weatherlink.com 1.10,2013-02-27 13:52:00,
2013-02-27 08:07:00,29.9,29.0,29.82,WNW,286,6.0,9.0,96,0.00,,,0.01,weatherlink.com 1.10,2013-02-27 14:07:00,
2013-02-27 08:22:00,30.1,29.0,29.82,West,281,7.0,11.0,96,0.00,,,0.01,weatherlink.com 1.10,2013-02-27 14:22:00,
2013-02-27 08:37:00,30.2,29.0,29.82,WSW,244,6.0,10.0,96,0.00,,,0.01,weatherlink.com 1.10,2013-02-27 14:37:00,
2013-02-27 08:52:00,30.3,29.0,29.82,WSW,246,4.0,12.0,96,0.00,,,0.01,weatherlink.com 1.10,2013-02-27 14:52:00,
2013-02-27 09:07:00,30.4,29.0,29.82,NW,319,6.0,12.0,96,0.00,,,0.01,weatherlink.com 1.10,2013-02-27 15:07:00,
2013-02-27 09:22:00,30.5,29.0,29.83,West,279,8.0,11.0,95,0.00,,,0.01,weatherlink.com 1.10,2013-02-27 15:22:00,
2013-02-27 09:37:00,30.6,29.0,29.82,West,280,5.0,15.0,95,0.00,,,0.01,weatherlink.com 1.10,2013-02-27 15:37:00,
2013-02-27 09:52:00,30.6,29.0,29.83,WNW,292,11.0,15.0,95,0.00,,,0.01,weatherlink.com 1.10,2013-02-27 15:52:00,
2013-02-27 10:07:00,30.6,29.0,29.83,West,267,16.0,17.0,94,0.00,,,0.01,weatherlink.com 1.10,2013-02-27 16:07:00,
2013-02-27 10:22:00,30.8,29.0,29.83,WNW,298,11.0,16.0,94,0.00,,,0.01,weatherlink.com 1.10,2013-02-27 16:22:00,
2013-02-27 10:37:00,30.7,29.0,29.83,West,276,7.0,15.0,94,0.00,,,0.01,weatherlink.com 1.10,2013-02-27 16:37:00,
2013-02-27 10:52:00,30.8,29.0,29.83,West,277,9.0,13.0,94,0.01,,,0.02,weatherlink.com 1.10,2013-02-27 16:52:00,
2013-02-27 11:07:00,31.1,29.0,29.83,WNW,295,6.0,15.0,93,0.01,,,0.02,weatherlink.com 1.10,2013-02-27 17:07:00,
2013-02-27 11:22:00,31.3,30.0,29.83,WNW,286,9.0,16.0,93,0.02,,,0.03,weatherlink.com 1.10,2013-02-27 17:22:00,
2013-02-27 11:37:00,31.2,29.0,29.84,WNW,289,10.0,17.0,92,0.03,,,0.04,weatherlink.com 1.10,2013-02-27 17:37:00,
2013-02-27 11:52:00,31.2,29.0,29.84,WNW,286,10.0,14.0,92,0.02,,,0.04,weatherlink.com 1.10,2013-02-27 17:52:00,
2013-02-27 12:07:00,31.7,29.0,29.84,NW,311,7.0,18.0,89,0.02,,,0.05,weatherlink.com 1.10,2013-02-27 18:07:00,
2013-02-27 12:22:00,31.9,29.0,29.84,WNW,285,10.0,16.0,88,0.03,,,0.06,weatherlink.com 1.10,2013-02-27 18:22:00,
2013-02-27 12:37:00,31.4,29.0,29.84,WNW,293,12.0,17.0,89,0.03,,,0.07,weatherlink.com 1.10,2013-02-27 18:37:00,
2013-02-27 12:53:00,31.1,28.0,29.84,NW,306,14.0,19.0,89,0.03,,,0.07,weatherlink.com 1.10,2013-02-27 18:53:00,
2013-02-27 13:08:00,31.2,28.0,29.84,West,274,7.0,20.0,88,0.03,,,0.08,weatherlink.com 1.10,2013-02-27 19:08:00,
2013-02-27 13:23:00,31.0,28.0,29.84,WNW,298,12.0,18.0,88,0.02,,,0.08,weatherlink.com 1.10,2013-02-27 19:23:00,
2013-02-27 13:38:00,30.9,28.0,29.84,WNW,294,9.0,15.0,88,0.02,,,0.09,weatherlink.com 1.10,2013-02-27 19:38:00,
2013-02-27 13:53:00,31.1,28.0,29.84,WNW,288,9.0,20.0,87,0.02,,,0.09,weatherlink.com 1.10,2013-02-27 19:53:00,
2013-02-27 14:08:00,31.1,28.0,29.85,West,265,7.0,23.0,88,0.02,,,0.10,weatherlink.com 1.10,2013-02-27 20:08:00,
2013-02-27 14:23:00,31.0,28.0,29.85,WNW,282,11.0,18.0,88,0.02,,,0.10,weatherlink.com 1.10,2013-02-27 20:23:00,
2013-02-27 14:38:00,31.2,28.0,29.85,NW,320,9.0,19.0,87,0.02,,,0.11,weatherlink.com 1.10,2013-02-27 20:38:00,
2013-02-27 14:53:00,30.9,28.0,29.86,WNW,286,5.0,16.0,89,0.02,,,0.11,weatherlink.com 1.10,2013-02-27 20:53:00,
2013-02-27 15:08:00,31.0,28.0,29.86,West,275,8.0,15.0,88,0.02,,,0.12,weatherlink.com 1.10,2013-02-27 21:08:00,
2013-02-27 15:23:00,31.0,28.0,29.87,WNW,286,7.0,13.0,88,0.02,,,0.12,weatherlink.com 1.10,2013-02-27 21:23:00,
2013-02-27 15:38:00,30.8,28.0,29.87,WSW,254,6.0,16.0,89,0.01,,,0.12,weatherlink.com 1.10,2013-02-27 21:38:00,
2013-02-27 15:53:00,30.6,28.0,29.88,NW,305,9.0,16.0,89,0.02,,,0.13,weatherlink.com 1.10,2013-02-27 21:53:00,
2013-02-27 16:08:00,30.4,28.0,29.89,WNW,291,9.0,18.0,90,0.01,,,0.13,weatherlink.com 1.10,2013-02-27 22:08:00,
2013-02-27 16:23:00,30.1,28.0,29.89,WNW,299,9.0,15.0,90,0.01,,,0.13,weatherlink.com 1.10,2013-02-27 22:23:00,
2013-02-27 16:38:00,30.2,28.0,29.90,WNW,297,7.0,16.0,90,0.01,,,0.13,weatherlink.com 1.10,2013-02-27 22:38:00,
2013-02-27 16:53:00,29.9,28.0,29.90,WNW,301,7.0,16.0,91,0.00,,,0.13,weatherlink.com 1.10,2013-02-27 22:53:00,
2013-02-27 17:08:00,29.8,27.0,29.91,WNW,287,7.0,15.0,90,0.00,,,0.13,weatherlink.com 1.10,2013-02-27 23:08:00,
2013-02-27 17:23:00,29.7,27.0,29.91,WNW,291,4.0,14.0,91,0.01,,,0.14,weatherlink.com 1.10,2013-02-27 23:23:00,
2013-02-27 17:38:00,29.4,27.0,29.92,WNW,295,7.0,15.0,91,0.01,,,0.14,weatherlink.com 1.10,2013-02-27 23:38:00,
2013-02-27 17:53:00,29.2,27.0,29.92,WNW,292,6.0,17.0,91,0.01,,,0.14,weatherlink.com 1.10,2013-02-27 23:53:00,
2013-02-27 18:08:00,29.0,27.0,29.92,WNW,283,6.0,12.0,92,0.01,,,0.14,weatherlink.com 1.10,2013-02-28 00:08:00,
2013-02-27 18:23:00,28.9,27.0,29.93,West,273,5.0,13.0,92,0.00,,,0.14,weatherlink.com 1.10,2013-02-28 00:23:00,
2013-02-27 18:38:00,28.8,27.0,29.93,West,280,8.0,14.0,93,0.00,,,0.14,weatherlink.com 1.10,2013-02-28 00:38:00,
2013-02-27 18:53:00,28.9,27.0,29.94,West,270,4.0,12.0,93,0.00,,,0.14,weatherlink.com 1.10,2013-02-28 00:53:00,
2013-02-27 19:08:00,28.9,27.0,29.94,West,269,7.0,11.0,93,0.00,,,0.14,weatherlink.com 1.10,2013-02-28 01:08:00,
2013-02-27 19:23:00,28.9,27.0,29.94,West,269,7.0,12.0,93,0.00,,,0.14,weatherlink.com 1.10,2013-02-28 01:23:00,
2013-02-27 19:38:00,28.7,27.0,29.94,West,279,6.0,11.0,93,0.00,,,0.14,weatherlink.com 1.10,2013-02-28 01:38:00,
2013-02-27 19:53:00,28.7,27.0,29.95,West,275,6.0,12.0,93,0.00,,,0.14,weatherlink.com 1.10,2013-02-28 01:53:00,
2013-02-27 20:08:00,28.6,27.0,29.95,NW,310,7.0,11.0,93,0.00,,,0.14,weatherlink.com 1.10,2013-02-28 02:08:00,
2013-02-27 20:23:00,28.5,27.0,29.94,NW,305,8.0,13.0,93,0.00,,,0.14,weatherlink.com 1.10,2013-02-28 02:23:00,
2013-02-27 20:38:00,28.6,27.0,29.94,WSW,254,8.0,10.0,93,0.00,,,0.14,weatherlink.com 1.10,2013-02-28 02:38:00,
2013-02-27 20:53:00,28.7,27.0,29.95,WNW,300,5.0,12.0,92,0.00,,,0.14,weatherlink.com 1.10,2013-02-28 02:53:00,
2013-02-27 21:08:00,28.9,27.0,29.95,West,276,9.0,14.0,92,0.00,,,0.14,weatherlink.com 1.10,2013-02-28 03:08:00,
2013-02-27 21:23:00,28.9,27.0,29.95,West,272,6.0,11.0,92,0.00,,,0.14,weatherlink.com 1.10,2013-02-28 03:23:00,
2013-02-27 21:38:00,28.9,27.0,29.95,NW,304,7.0,12.0,91,0.00,,,0.14,weatherlink.com 1.10,2013-02-28 03:38:00,
2013-02-27 21:53:00,28.9,27.0,29.95,NW,308,3.0,10.0,91,0.00,,,0.14,weatherlink.com 1.10,2013-02-28 03:53:00,
2013-02-27 22:09:00,28.9,27.0,29.95,WNW,294,7.0,10.0,91,0.00,,,0.14,weatherlink.com 1.10,2013-02-28 04:09:00,
2013-02-27 22:24:00,28.8,27.0,29.96,NW,307,4.0,9.0,91,0.00,,,0.14,weatherlink.com 1.10,2013-02-28 04:24:00,
2013-02-27 22:39:00,28.8,27.0,29.96,WNW,294,6.0,13.0,91,0.00,,,0.14,weatherlink.com 1.10,2013-02-28 04:39:00,
2013-02-27 22:54:00,28.5,26.0,29.96,WNW,292,7.0,13.0,91,0.00,,,0.14,weatherlink.com 1.10,2013-02-28 04:54:00,
2013-02-27 23:09:00,28.1,26.0,29.96,WNW,292,6.0,9.0,91,0.00,,,0.14,weatherlink.com 1.10,2013-02-28 05:09:00,
2013-02-27 23:24:00,27.9,26.0,29.95,WNW,292,3.0,11.0,91,0.00,,,0.14,weatherlink.com 1.10,2013-02-28 05:24:00,
2013-02-27 23:39:00,27.8,26.0,29.95,WNW,302,6.0,11.0,91,0.00,,,0.14,weatherlink.com 1.10,2013-02-28 05:39:00,
2013-02-27 23:54:00,27.4,25.0,29.95,WNW,296,8.0,10.0,91,0.00,,,0.14,weatherlink.com 1.10,2013-02-28 05:54:00,